Location: Glencliff
(36.1226°N, 86.7183°W)
Time: 14:06:54
(UTC+00:00)

Resurs 01 Rocket - Pass Details

Date: 25 August 2019
Orbit: 635 x 643 km, 98.0° (Epoch: 19 September)

Event Time Altitude Azimuth Distance (km) Brightness Sun altitude
Exits shadow 01:30:05 20° 107° (ESE) 1,483 2.9 -13.1°
Maximum altitude 01:31:55 26° 70° (ENE) 1,252 2.7 -13.4°
Drops below altitude 10° 01:35:34 10° 14° (NNE) 2,027 4.3 -14.1°
Sets 01:38:03 0° 2° (N) 2,940 5.4 -14.6°
